Meath Environmental Platform

Observations for Trim Patrick St

Time AQI Temp °C Hum % Pres Pa CO μg/m³ H₂S μg/m³ NO μg/m³ NO₂ μg/m³ O₃ μg/m³ SO₂ μg/m³ PM1 μg/m³ PM2.5 μg/m³ PM10 μg/m³
Thursday 6 August 2026
09:07 1 20.6 58 76,273 0.23 0 3.62 3.93 11.35 2.67 2.86 6.67 7.34
09:05 1 20.4 61 76,967 0.26 0 3.8 5.53 4.68 2.9 2 6.45 7.1
09:04 1 20.3 62 77,345 0.26 0 3.61 4.26 16.16 3.07 2 7.15 7.87
09:03 1 20.1 63 77,744 0.26 0 3.88 5 31.99 2.68 2 6.34 6.98
09:02 1 20 60 78,169 0.25 0 3.7 5.24 19.39 2.99 2 5.76 6.33
09:01 1 19.9 61 78,474 0.24 0 3.78 7.32 31.86 2.29 2.86 6.43 7.08
09:00 1 19.8 63 78,781 0.24 0 3.97 4.91 17.13 1.92 2.86 7.09 7.79
08:54 1 19.1 63 80,994 0.23 0 3.61 5.46 18.13 1.7 2.86 7.07 7.78
08:53 1 19 64 81,886 0.25 0 3.67 5.92 26.17 1.63 2 6.24 6.87
08:52 1 19 65 83,115 0.27 0 3.44 4.5 12.37 2.39 2.86 6.92 7.62
08:51 1 18.9 66 84,726 0.24 0 2.97 6.67 25.31 1.96 2.86 6.89 7.58
08:50 1 18.8 64 86,468 0.24 0 3.29 5.32 23.39 1.3 2 5.51 6.06
08:49 2 18.7 66 88,696 0.26 0 3.11 6.34 13.53 1.99 2 5.42 5.97
08:48 2 18.5 67 91,210 0.27 0 2.86 8.59 27.01 2.3 2.86 6.82 7.5
08:47 2 18.4 66 93,777 0.28 0 3.31 7.9 23.68 1.77 2.86 6.83 7.51
08:46 2 18.3 66 96,676 0.27 0 3.27 5.97 14.64 2.2 2 5.41 5.95
08:45 2 18.2 68 99,985 0.27 0 3.5 9.65 35.45 1.76 2 6.04 6.64
08:44 2 18.1 66 103,571 0.27 0 3.19 7.15 17.1 1.88 2.86 6.14 6.75
08:43 2 18 66 105,404 0.26 0 3.28 8.39 21.41 2.16 2.86 6.11 6.73
08:42 2 17.9 66 107,935 0.26 0 2.86 12.71 28.67 2.81 2.86 7.57 8.32